Location: Remedello Sotto
(45.2500°N, 10.3667°E)
Time: 05:44:46
(UTC+00:00)

CORIOLIS - Pass Details

Date: 03 February 2023
Orbit: 818 x 838 km, 98.7° (Epoch: 29 March)

Event Time Altitude Azimuth Distance (km) Brightness Sun altitude
Rises 16:47:45 0° 167° (SSE) 3,371 7.4 -4.0°
Reaches altitude 10° 16:50:06 10° 169° (SSE) 2,439 6.7 -4.4°
Maximum altitude 16:55:31 80° 256° (WSW) 851 4.4 -5.3°
Drops below altitude 10° 17:00:57 10° 344° (NNW) 2,443 6.6 -6.3°
Sets 17:03:19 0° 345° (NNW) 3,378 7.3 -6.7°
